Showing default

AEROCUBE 8C, 41853

Orbit data source: Space-Track

AEROCUBE 8C, 41853 is a payload satellite owned by AERO (US) in SSO that was launched on Fri, 11 Nov 2016 UTC via an ATLAS V 401 launch vehicle from the Air Force Western Test Range (AFWTR). Payload-class satellites include a variety of spacecraft equipped with specific instruments for various scientific and technological missions. These include communications satellites like Starlink; space stations such as the ISS; scientific satellites like the Hubble; Earth observation satellites from companies like Planet Labs, Umbra, and HawkEye 360; GPS; miniature CubeSats for education and research; and military/defense satellites.

Loading next visibility...
Identifier
41853, 2016-067F
Orbit
SSO
Country
Flag of USUS
Related business
Manufacturer
AERO
Mission
Operational Defense Technology
Bus & Motor
CUBESAT 1.5U, Unknown motor
Mass
2 kg wet, 2 kg dry
Launch date (UTC)
2016-11-11 (10 years ago)
Launch vehicle
ATLAS V 401
Launch site
Air Force Western Test Range (AFWTR)
Object type
Payload
Rocket body
Debris
Shape & HBR
Box, 0.1 m
Radar Cross Section
0.025 m², Medium (>0.1 m² and < 1m²)

Expand to show TLE details & history
Last TLE update: 3 days ago

TLE from 3 days ago
0 AEROCUBE 8C
1 41853U 16067F   26170.60887759  .00005876  00000-0  24098-3 0  9999
2 41853  98.0546  38.1882 0006504  62.3132 297.8763 15.24674232526435
Epoch: 2026-06-19T14:36Z
TLE epoch observation values (Epoch: 2026-06-19T14:36:47.023Z)
Latitude
-0.00005°
Longitude
-88.84313°
Altitude
492.754 km
Speed
7.62 km/s
True Right ascension
02h 32m 45s
True Declination
0° 00' 00"
Sunlit
Object was in daylight at epoch
Visualization orbit readout
Latitude
Unknown
Longitude
Unknown
Altitude
Unknown
Speed
Unknown
Apparent Right ascension
Unknown
Apparent Declination
Unknown
Sunlit
N/A
Visualization observer readout
Local Sidereal Time
21:36:37
Azimuth
Unknown
Elevation
Unknown
Doppler factor
Unknown
Orbital elements
Apogee altitude
493.219 km
Perigee altitude
484.286 km
Semi-major axis
6,866.889 km
Eccentricity
0.00065
Inclination
98.0546°
RAAN
38.1882°
Arg. of periapsis
62.3132°
True anomaly
297.81039°
Mean anomaly
297.8763°
Eccentric anomaly
297.84335°
Mean motion
3.8142 °/min
Orbital period
94.38 mins
BSTAR
0.00024098
Loading maneuver chart data...
Computing Atmospheric mass density...
Loading historical data...
Loading historical data...
Loading historical data...
Loading historical data...
Loading historical data...
Loading historical data...
Loading historical data...

Documentation

Showing up to 5 results
|